N755HF K66S-KGPI

Flight info

Callsign N755HF
Flight time N/A
Altitude 17000
Route RNDDY T328 KARSH
Aircraft PC12/L-SDFGRWY/S

Departure

Time N/A
Airport K66S

Arrival

Time 2026-05-03 21:34
Airport Glacier Park International Airport (KGPI)
Time Latitude Longitude Altitude Speed Heading
2026-05-03 20:56 48.51469 -116.82079 2539 ft 0 kts 252°
2026-05-03 21:02 48.51466 -116.82091 2544 ft 5 kts 229°
2026-05-03 21:02 48.51485 -116.82112 2544 ft 9 kts 348°
2026-05-03 21:02 48.51719 -116.82189 2539 ft 65 kts 352°
2026-05-03 21:02 48.52262 -116.82317 2744 ft 83 kts 353°
2026-05-03 21:03 48.52863 -116.82134 3102 ft 95 kts 33°
2026-05-03 21:03 48.53019 -116.81211 3545 ft 100 kts 118°
2026-05-03 21:03 48.52614 -116.80291 3985 ft 114 kts 118°
2026-05-03 21:03 48.52427 -116.79012 4574 ft 135 kts 85°
2026-05-03 21:04 48.52631 -116.77714 5451 ft 125 kts 72°
2026-05-03 21:04 48.52904 -116.76500 6222 ft 125 kts 58°
2026-05-03 21:04 48.53305 -116.75189 6614 ft 149 kts 73°
2026-05-03 21:04 48.53400 -116.73570 7178 ft 160 kts 92°
2026-05-03 21:05 48.53265 -116.71824 7568 ft 186 kts 96°
2026-05-03 21:05 48.53066 -116.69664 7546 ft 220 kts 97°
2026-05-03 21:05 48.52865 -116.67298 7631 ft 240 kts 96°
2026-05-03 21:05 48.52664 -116.64764 7733 ft 248 kts 95°
2026-05-03 21:06 48.52468 -116.62282 8381 ft 225 kts 95°
2026-05-03 21:06 48.52291 -116.60072 9365 ft 199 kts 94°
2026-05-03 21:06 48.52134 -116.58134 10404 ft 172 kts 94°
2026-05-03 21:06 48.51998 -116.56425 11282 ft 161 kts 92°
2026-05-03 21:07 48.51866 -116.54723 11953 ft 165 kts 92°
2026-05-03 21:07 48.51727 -116.52996 12640 ft 167 kts 92°
2026-05-03 21:07 48.51584 -116.51249 13316 ft 169 kts 93°
2026-05-03 21:07 48.51440 -116.49485 13973 ft 170 kts 93°
2026-05-03 21:08 48.51295 -116.47704 14620 ft 172 kts 93°
2026-05-03 21:08 48.51149 -116.45904 15274 ft 174 kts 93°
2026-05-03 21:08 48.51002 -116.44088 15912 ft 175 kts 93°
2026-05-03 21:08 48.50852 -116.42257 16562 ft 177 kts 93°
2026-05-03 21:09 48.50698 -116.40355 16891 ft 197 kts 94°
2026-05-03 21:09 48.50519 -116.38178 16898 ft 218 kts 94°
2026-05-03 21:09 48.50322 -116.35840 16899 ft 231 kts 94°
2026-05-03 21:09 48.50120 -116.33393 16900 ft 238 kts 94°
2026-05-03 21:10 48.49913 -116.30881 16893 ft 245 kts 94°
2026-05-03 21:10 48.49701 -116.28312 16893 ft 248 kts 94°
2026-05-03 21:10 48.49487 -116.25719 16882 ft 251 kts 94°
2026-05-03 21:10 48.49270 -116.23107 16878 ft 252 kts 94°
2026-05-03 21:11 48.49051 -116.20491 16878 ft 251 kts 94°
2026-05-03 21:11 48.48832 -116.17875 16869 ft 253 kts 94°
2026-05-03 21:11 48.48611 -116.15236 16867 ft 254 kts 94°
2026-05-03 21:11 48.48388 -116.12591 16865 ft 254 kts 94°
2026-05-03 21:12 48.48165 -116.09946 16861 ft 255 kts 94°
2026-05-03 21:12 48.47940 -116.07294 16864 ft 255 kts 94°
2026-05-03 21:12 48.47715 -116.04639 16860 ft 255 kts 95°
2026-05-03 21:12 48.47490 -116.01995 16860 ft 255 kts 94°
2026-05-03 21:13 48.47263 -115.99353 16856 ft 253 kts 94°
2026-05-03 21:13 48.47042 -115.96756 16859 ft 254 kts 94°
2026-05-03 21:13 48.46815 -115.94117 16851 ft 254 kts 94°
2026-05-03 21:13 48.46588 -115.91481 16851 ft 253 kts 94°
2026-05-03 21:14 48.46360 -115.88844 16855 ft 254 kts 94°
2026-05-03 21:14 48.46132 -115.86202 16855 ft 254 kts 94°
2026-05-03 21:14 48.45903 -115.83565 16849 ft 254 kts 95°
2026-05-03 21:14 48.45673 -115.80924 16856 ft 254 kts 94°
2026-05-03 21:15 48.45441 -115.78272 16840 ft 255 kts 94°
2026-05-03 21:15 48.45210 -115.75627 16846 ft 255 kts 95°
2026-05-03 21:15 48.44977 -115.72981 16842 ft 255 kts 95°
2026-05-03 21:15 48.44744 -115.70335 16843 ft 254 kts 95°
2026-05-03 21:16 48.44511 -115.67691 16847 ft 256 kts 95°
2026-05-03 21:16 48.44277 -115.65039 16842 ft 256 kts 95°
2026-05-03 21:16 48.44041 -115.62375 16839 ft 256 kts 95°
2026-05-03 21:16 48.43804 -115.59723 16838 ft 255 kts 95°
2026-05-03 21:17 48.43568 -115.57076 16839 ft 255 kts 95°
2026-05-03 21:17 48.43412 -115.55323 16837 ft 255 kts 95°
2026-05-03 21:17 48.43098 -115.51821 16844 ft 254 kts 95°
2026-05-03 21:17 48.42858 -115.49153 16842 ft 254 kts 95°
2026-05-03 21:18 48.42624 -115.46553 16851 ft 255 kts 95°
2026-05-03 21:18 48.42384 -115.43902 16853 ft 256 kts 95°
2026-05-03 21:18 48.42144 -115.41250 16849 ft 256 kts 95°
2026-05-03 21:18 48.41902 -115.38596 16850 ft 256 kts 95°
2026-05-03 21:19 48.41661 -115.35943 16850 ft 256 kts 95°
2026-05-03 21:19 48.41419 -115.33299 16855 ft 255 kts 95°
2026-05-03 21:19 48.41177 -115.30658 16853 ft 254 kts 95°
2026-05-03 21:19 48.40936 -115.28016 16848 ft 255 kts 95°
2026-05-03 21:20 48.40692 -115.25369 16856 ft 255 kts 95°
2026-05-03 21:20 48.40530 -115.23618 16858 ft 256 kts 95°
2026-05-03 21:20 48.40285 -115.20961 16857 ft 256 kts 95°
2026-05-03 21:20 48.40038 -115.18305 16855 ft 256 kts 95°
2026-05-03 21:21 48.39792 -115.15652 16858 ft 256 kts 95°
2026-05-03 21:21 48.39545 -115.13003 16862 ft 255 kts 95°
2026-05-03 21:21 48.39298 -115.10362 16862 ft 255 kts 95°
2026-05-03 21:21 48.39052 -115.07727 16865 ft 255 kts 95°
2026-05-03 21:22 48.38805 -115.05095 16800 ft 255 kts 95°
2026-05-03 21:22 48.38554 -115.02426 16427 ft 260 kts 95°
2026-05-03 21:22 48.38298 -114.99726 16047 ft 262 kts 95°
2026-05-03 21:22 48.38044 -114.97041 15678 ft 263 kts 95°
2026-05-03 21:23 48.37785 -114.94306 15314 ft 264 kts 96°
2026-05-03 21:23 48.37527 -114.91590 15169 ft 258 kts 96°
2026-05-03 21:23 48.37276 -114.88973 15172 ft 248 kts 95°
2026-05-03 21:23 48.37035 -114.86435 15172 ft 242 kts 95°
2026-05-03 21:24 48.36798 -114.83961 15195 ft 236 kts 95°
2026-05-03 21:24 48.36566 -114.81534 15201 ft 233 kts 95°
2026-05-03 21:24 48.36341 -114.79205 15201 ft 232 kts 95°
2026-05-03 21:24 48.36110 -114.76805 15199 ft 232 kts 95°
2026-05-03 21:25 48.35929 -114.74938 15202 ft 232 kts 95°
2026-05-03 21:25 48.35694 -114.72497 15208 ft 232 kts 95°
2026-05-03 21:25 48.35459 -114.70073 15009 ft 241 kts 96°
2026-05-03 21:25 48.35212 -114.67526 14651 ft 251 kts 95°
2026-05-03 21:26 48.34954 -114.64895 14286 ft 257 kts 96°
2026-05-03 21:26 48.34691 -114.62208 13945 ft 261 kts 96°
2026-05-03 21:26 48.34428 -114.59528 13584 ft 263 kts 96°
2026-05-03 21:26 48.34157 -114.56770 13183 ft 263 kts 96°
2026-05-03 21:27 48.33893 -114.54086 12802 ft 263 kts 96°
2026-05-03 21:27 48.33625 -114.51371 12429 ft 263 kts 97°
2026-05-03 21:27 48.33357 -114.48654 12054 ft 263 kts 97°
2026-05-03 21:27 48.33087 -114.45940 11611 ft 263 kts 97°
2026-05-03 21:28 48.32816 -114.43216 11092 ft 263 kts 98°
2026-05-03 21:28 48.32545 -114.40495 10593 ft 264 kts 98°
2026-05-03 21:28 48.32273 -114.37769 10090 ft 263 kts 99°
2026-05-03 21:28 48.32001 -114.35051 9566 ft 262 kts 99°
2026-05-03 21:29 48.31728 -114.32347 9036 ft 261 kts 98°
2026-05-03 21:29 48.31458 -114.29661 8505 ft 260 kts 99°
2026-05-03 21:29 48.31189 -114.26992 7993 ft 258 kts 99°
2026-05-03 21:29 48.31131 -114.24335 7450 ft 255 kts 80°
2026-05-03 21:30 48.31594 -114.21762 6845 ft 249 kts 69°
2026-05-03 21:30 48.32337 -114.19549 6408 ft 228 kts 49°
2026-05-03 21:30 48.33431 -114.18035 6164 ft 201 kts 36°
2026-05-03 21:30 48.34455 -114.16812 6118 ft 178 kts 33°
2026-05-03 21:31 48.35488 -114.16267 5913 ft 141 kts 336°
2026-05-03 21:31 48.36013 -114.17249 5621 ft 123 kts 278°
2026-05-03 21:31 48.35938 -114.18454 5322 ft 108 kts 258°
2026-05-03 21:31 48.35764 -114.19523 5010 ft 104 kts 251°
2026-05-03 21:32 48.35450 -114.20536 4618 ft 111 kts 238°
2026-05-03 21:32 48.34923 -114.21373 4376 ft 106 kts 219°
2026-05-03 21:32 48.34378 -114.22058 4042 ft 97 kts 219°
2026-05-03 21:32 48.33860 -114.22613 3757 ft 90 kts 215°
2026-05-03 21:33 48.33340 -114.23143 3495 ft 92 kts 213°
2026-05-03 21:33 48.32811 -114.23709 3276 ft 94 kts 212°
2026-05-03 21:33 48.32282 -114.24258 3112 ft 91 kts 212°
2026-05-03 21:33 48.31776 -114.24783 2997 ft 85 kts 213°
2026-05-03 21:34 48.31344 -114.25234 2974 ft 64 kts 215°
2026-05-03 21:34 48.31079 -114.25512 2973 ft 36 kts 211°
2026-05-03 21:34 48.30909 -114.25683 2971 ft 26 kts 211°
2026-05-03 21:34 48.30748 -114.25865 2973 ft 27 kts 215°
2026-05-03 21:35 48.30628 -114.25872 2977 ft 16 kts 130°
2026-05-03 21:35 48.30682 -114.25723 2974 ft 26 kts 35°
2026-05-03 21:35 48.30860 -114.25542 2974 ft 32 kts 35°
2026-05-03 21:35 48.30974 -114.25421 2974 ft 17 kts 40°
2026-05-03 21:36 48.31029 -114.25307 2974 ft 16 kts 97°
2026-05-03 21:36 48.31010 -114.25174 2974 ft 8 kts 177°
2026-05-03 21:36 48.30994 -114.25217 2974 ft 0 kts 273°